,,PressureMeas_1m,,PRMeasQMR101_1,,RHStat155_1m_1,,SRMeasQMS101R_1m,,TAStat155_1m_1,,GenWind_1,,GenWind_1,
2019-05-08, 07:00:06,VALID,917.2,VALID,0.0,VALID,97.453,VALID,60.899,VALID,19.753,INVALID,360.0,VALID,0.0,
2019-05-08, 07:01:06,VALID,917.206,VALID,0.0,VALID,97.265,VALID,63.191,VALID,19.744,INVALID,360.0,VALID,0.0,
2019-05-08, 07:02:06,VALID,917.214,VALID,0.0,VALID,97.189,VALID,65.199,VALID,19.755,INVALID,360.0,VALID,0.0,
2019-05-08, 07:03:06,VALID,917.261,VALID,0.0,VALID,97.241,VALID,67.007,VALID,19.777,INVALID,360.0,VALID,0.0,
2019-05-08, 07:04:06,VALID,917.285,VALID,0.0,VALID,97.194,VALID,68.703,VALID,19.738,INVALID,360.0,VALID,0.0,
2019-05-08, 07:05:06,VALID,917.331,VALID,0.0,VALID,97.217,VALID,70.019,VALID,19.708,INVALID,360.0,VALID,0.0,
2019-05-08, 07:06:06,VALID,917.359,VALID,0.0,VALID,97.319,VALID,71.057,VALID,19.691,INVALID,360.0,VALID,0.0,
2019-05-08, 07:07:06,VALID,917.379,VALID,0.0,VALID,97.482,VALID,72.287,VALID,19.702,INVALID,360.0,VALID,0.0,
2019-05-08, 07:08:06,VALID,917.395,VALID,0.0,VALID,97.7,VALID,73.706,VALID,19.731,INVALID,360.0,VALID,0.0,
2019-05-08, 07:09:06,VALID,917.408,VALID,0.0,VALID,97.759,VALID,75.044,VALID,19.743,INVALID,360.0,VALID,0.0,
2019-05-08, 07:10:06,VALID,917.456,VALID,0.0,VALID,97.774,VALID,76.283,VALID,19.758,INVALID,360.0,VALID,0.0,
2019-05-08, 07:11:06,VALID,917.469,VALID,0.0,VALID,97.792,VALID,77.544,VALID,19.789,INVALID,360.0,VALID,0.0,
2019-05-08, 07:12:06,VALID,917.49,VALID,0.0,VALID,97.862,VALID,78.109,VALID,19.854,INVALID,360.0,VALID,0.0,
2019-05-08, 07:13:06,VALID,917.5,VALID,0.0,VALID,98.01,VALID,78.316,VALID,19.97,INVALID,360.0,VALID,0.0,
2019-05-08, 07:14:06,VALID,917.528,VALID,0.0,VALID,97.819,VALID,78.697,VALID,20.024,INVALID,360.0,VALID,0.0,
2019-05-08, 07:15:06,VALID,917.535,VALID,0.0,VALID,97.402,VALID,78.416,VALID,20.043,INVALID,360.0,VALID,0.0,
2019-05-08, 07:16:06,VALID,917.554,VALID,0.0,VALID,96.646,VALID,77.505,VALID,20.05,INVALID,360.0,VALID,0.0,
2019-05-08, 07:17:06,VALID,917.56,VALID,0.0,VALID,96.421,VALID,77.109,VALID,20.117,INVALID,360.0,VALID,0.0,
2019-05-08, 07:18:06,VALID,917.586,VALID,0.0,VALID,96.283,VALID,76.674,VALID,20.166,VALID,51.0,VALID,0.0,
2019-05-08, 07:19:06,VALID,917.591,VALID,0.0,VALID,96.286,VALID,76.191,VALID,20.221,VALID,51.0,VALID,0.0,
2019-05-08, 07:20:06,VALID,917.604,VALID,0.0,VALID,96.26,VALID,75.838,VALID,20.265,INVALID,360.0,VALID,0.0,
2019-05-08, 07:21:06,VALID,917.635,VALID,0.0,VALID,95.965,VALID,75.908,VALID,20.289,INVALID,360.0,VALID,0.0,
2019-05-08, 07:22:06,VALID,917.627,VALID,0.0,VALID,95.915,VALID,75.74,VALID,20.328,INVALID,360.0,VALID,0.0,
2019-05-08, 07:23:06,VALID,917.645,VALID,0.0,VALID,95.979,VALID,74.53,VALID,20.364,INVALID,360.0,VALID,0.0,
2019-05-08, 07:24:06,VALID,917.649,VALID,0.0,VALID,95.831,VALID,73.351,VALID,20.383,INVALID,360.0,VALID,0.0,
2019-05-08, 07:25:06,VALID,917.646,VALID,0.0,VALID,95.834,VALID,74.021,VALID,20.455,VALID,52.0,VALID,0.0,
2019-05-08, 07:26:06,VALID,917.663,VALID,0.0,VALID,96.11,VALID,76.939,VALID,20.51,INVALID,360.0,VALID,0.0,
2019-05-08, 07:27:06,VALID,917.678,VALID,0.0,VALID,95.704,VALID,81.89,VALID,20.531,INVALID,360.0,VALID,0.0,
2019-05-08, 07:28:06,VALID,917.68,VALID,0.0,VALID,95.325,VALID,86.44,VALID,20.582,INVALID,360.0,VALID,0.0,
2019-05-08, 07:29:06,VALID,917.71,VALID,0.0,VALID,94.476,VALID,88.586,VALID,20.604,INVALID,360.0,VALID,0.0,
2019-05-08, 07:30:06,VALID,917.73,VALID,0.0,VALID,94.281,VALID,90.13,VALID,20.631,INVALID,360.0,VALID,0.0,
2019-05-08, 07:31:06,VALID,917.727,VALID,0.0,VALID,94.406,VALID,93.64,VALID,20.647,INVALID,360.0,VALID,0.0,
2019-05-08, 07:32:06,VALID,917.757,VALID,0.0,VALID,94.506,VALID,98.353,VALID,20.658,INVALID,360.0,VALID,0.0,
2019-05-08, 07:33:06,VALID,917.774,VALID,0.0,VALID,94.523,VALID,102.451,VALID,20.665,VALID,51.0,VALID,0.0,
2019-05-08, 07:34:06,VALID,917.802,VALID,0.0,VALID,94.84,VALID,105.82,VALID,20.698,INVALID,360.0,VALID,0.0,
2019-05-08, 07:35:06,VALID,917.796,VALID,0.0,VALID,94.877,VALID,108.803,VALID,20.732,VALID,53.0,VALID,0.0,
2019-05-08, 07:36:06,VALID,917.805,VALID,0.0,VALID,94.706,VALID,111.157,VALID,20.755,VALID,52.0,VALID,0.0,
2019-05-08, 07:37:06,VALID,917.813,VALID,0.0,VALID,94.51,VALID,113.636,VALID,20.783,VALID,52.0,VALID,0.0,
2019-05-08, 07:38:06,VALID,917.834,VALID,0.0,VALID,94.725,VALID,116.307,VALID,20.839,VALID,52.0,VALID,0.0,
2019-05-08, 07:39:06,VALID,917.849,VALID,0.0,VALID,94.691,VALID,118.575,VALID,20.893,VALID,50.0,VALID,0.0,
2019-05-08, 07:40:06,VALID,917.872,VALID,0.0,VALID,94.379,VALID,120.848,VALID,20.945,INVALID,360.0,VALID,0.0,
2019-05-08, 07:41:06,VALID,917.898,VALID,0.0,VALID,94.505,VALID,122.682,VALID,21.032,INVALID,360.0,VALID,0.0,
2019-05-08, 07:42:06,VALID,917.94,VALID,0.0,VALID,94.992,VALID,123.481,VALID,21.116,INVALID,360.0,VALID,0.0,
2019-05-08, 07:43:06,VALID,917.951,VALID,0.0,VALID,94.234,VALID,123.128,VALID,21.164,INVALID,360.0,VALID,0.0,
2019-05-08, 07:44:06,VALID,917.981,VALID,0.0,VALID,93.31,VALID,123.367,VALID,21.206,INVALID,360.0,VALID,0.0,
2019-05-08, 07:45:06,VALID,917.973,VALID,0.0,VALID,92.7,VALID,124.608,VALID,21.22,INVALID,360.0,VALID,0.0,
2019-05-08, 07:46:06,VALID,918.0,VALID,0.0,VALID,93.111,VALID,125.8,VALID,21.24,INVALID,360.0,VALID,0.0,
2019-05-08, 07:47:06,VALID,918.018,VALID,0.0,VALID,93.091,VALID,126.262,VALID,21.285,INVALID,360.0,VALID,0.0,
2019-05-08, 07:48:06,VALID,918.041,VALID,0.0,VALID,92.997,VALID,125.497,VALID,21.346,INVALID,360.0,VALID,0.0,
2019-05-08, 07:49:06,VALID,918.074,VALID,0.0,VALID,93.27,VALID,125.549,VALID,21.404,INVALID,360.0,VALID,0.0,
2019-05-08, 07:50:06,VALID,918.097,VALID,0.0,VALID,93.616,VALID,128.608,VALID,21.43,INVALID,360.0,VALID,0.0,
2019-05-08, 07:51:06,VALID,918.113,VALID,0.0,VALID,92.337,VALID,133.354,VALID,21.387,INVALID,360.0,VALID,0.0,
2019-05-08, 07:52:06,VALID,918.134,VALID,0.0,VALID,92.539,VALID,137.987,VALID,21.379,INVALID,360.0,VALID,0.0,
2019-05-08, 07:53:06,VALID,918.155,VALID,0.0,VALID,92.079,VALID,141.604,VALID,21.354,INVALID,360.0,VALID,0.0,
2019-05-08, 07:54:06,VALID,918.188,VALID,0.0,VALID,92.738,VALID,144.525,VALID,21.343,INVALID,360.0,VALID,0.0,
2019-05-08, 07:55:06,VALID,918.219,VALID,0.0,VALID,92.942,VALID,146.796,VALID,21.342,INVALID,360.0,VALID,0.0,
2019-05-08, 07:56:06,VALID,918.257,VALID,0.0,VALID,92.502,VALID,149.175,VALID,21.376,INVALID,360.0,VALID,0.0,
2019-05-08, 07:57:06,VALID,918.285,VALID,0.0,VALID,92.402,VALID,150.176,VALID,21.412,INVALID,360.0,VALID,0.0,
2019-05-08, 07:58:06,VALID,918.283,VALID,0.0,VALID,91.897,VALID,150.642,VALID,21.455,INVALID,360.0,VALID,0.0,
2019-05-08, 07:59:06,VALID,918.29,VALID,0.0,VALID,92.784,VALID,152.662,VALID,21.549,INVALID,360.0,VALID,0.0,
2019-05-08, 08:00:06,VALID,918.296,VALID,0.0,VALID,92.841,VALID,156.795,VALID,21.616,INVALID,360.0,VALID,0.0,
2019-05-08, 08:01:06,VALID,918.305,VALID,0.0,VALID,91.578,VALID,160.363,VALID,21.643,INVALID,360.0,VALID,0.0,
2019-05-08, 08:02:06,VALID,918.308,VALID,0.0,VALID,90.396,VALID,162.811,VALID,21.702,INVALID,360.0,VALID,0.0,
2019-05-08, 08:03:06,VALID,918.315,VALID,0.0,VALID,90.192,VALID,165.172,VALID,21.719,INVALID,360.0,VALID,0.0,
2019-05-08, 08:04:06,VALID,918.324,VALID,0.0,VALID,90.983,VALID,167.553,VALID,21.756,INVALID,360.0,VALID,0.0,
2019-05-08, 08:05:06,VALID,918.338,VALID,0.0,VALID,91.089,VALID,169.884,VALID,21.797,INVALID,360.0,VALID,0.0,
2019-05-08, 08:06:06,VALID,918.33,VALID,0.0,VALID,90.423,VALID,172.186,VALID,21.791,INVALID,360.0,VALID,0.0,
2019-05-08, 08:07:06,VALID,918.372,VALID,0.0,VALID,91.266,VALID,174.294,VALID,21.759,INVALID,360.0,VALID,0.0,
2019-05-08, 08:08:06,VALID,918.389,VALID,0.0,VALID,91.447,VALID,176.233,VALID,21.785,INVALID,360.0,VALID,0.0,
2019-05-08, 08:09:06,VALID,918.414,VALID,0.0,VALID,92.266,VALID,178.085,VALID,21.87,INVALID,360.0,VALID,0.0,
2019-05-08, 08:10:06,VALID,918.416,VALID,0.0,VALID,92.154,VALID,179.783,VALID,21.955,INVALID,360.0,VALID,0.0,
2019-05-08, 08:11:06,VALID,918.465,VALID,0.0,VALID,91.465,VALID,181.37,VALID,22.034,INVALID,360.0,VALID,0.0,
2019-05-08, 08:12:06,VALID,918.48,VALID,0.0,VALID,91.787,VALID,182.912,VALID,22.116,INVALID,360.0,VALID,0.0,
2019-05-08, 08:13:06,VALID,918.527,VALID,0.0,VALID,90.73,VALID,184.277,VALID,22.174,INVALID,360.0,VALID,0.0,
2019-05-08, 08:14:06,VALID,918.567,VALID,0.0,VALID,89.869,VALID,185.524,VALID,22.232,INVALID,360.0,VALID,0.0,
2019-05-08, 08:15:06,VALID,918.605,VALID,0.0,VALID,89.092,VALID,186.932,VALID,22.244,INVALID,360.0,VALID,0.0,
2019-05-08, 08:16:06,VALID,918.638,VALID,0.0,VALID,89.383,VALID,188.461,VALID,22.286,INVALID,360.0,VALID,0.0,
2019-05-08, 08:17:06,VALID,918.65,VALID,0.0,VALID,89.604,VALID,190.097,VALID,22.267,INVALID,360.0,VALID,0.0,
2019-05-08, 08:18:06,VALID,918.64,VALID,0.0,VALID,89.568,VALID,192.07,VALID,22.22,INVALID,360.0,VALID,0.0,
2019-05-08, 08:19:06,VALID,918.669,VALID,0.0,VALID,90.043,VALID,194.268,VALID,22.224,INVALID,360.0,VALID,0.0,
2019-05-08, 08:20:06,VALID,918.683,VALID,0.0,VALID,90.255,VALID,196.699,VALID,22.25,INVALID,360.0,VALID,0.0,
2019-05-08, 08:21:06,VALID,918.675,VALID,0.0,VALID,90.03,VALID,199.24,VALID,22.248,INVALID,360.0,VALID,0.0,
2019-05-08, 08:22:06,VALID,918.705,VALID,0.0,VALID,88.984,VALID,201.957,VALID,22.21,INVALID,360.0,VALID,0.0,
2019-05-08, 08:23:06,VALID,918.724,VALID,0.0,VALID,88.85,VALID,204.658,VALID,22.165,INVALID,360.0,VALID,0.0,
2019-05-08, 08:24:06,VALID,918.73,VALID,0.0,VALID,89.654,VALID,207.282,VALID,22.239,INVALID,360.0,VALID,0.0,
2019-05-08, 08:25:06,VALID,918.721,VALID,0.0,VALID,87.552,VALID,209.967,VALID,22.354,INVALID,360.0,VALID,0.0,
2019-05-08, 08:26:06,VALID,918.707,VALID,0.0,VALID,86.707,VALID,212.617,VALID,22.464,INVALID,360.0,VALID,0.0,
2019-05-08, 08:27:06,VALID,918.701,VALID,0.0,VALID,87.314,VALID,215.233,VALID,22.548,INVALID,360.0,VALID,0.0,
2019-05-08, 08:28:06,VALID,918.697,VALID,0.0,VALID,87.895,VALID,217.551,VALID,22.515,INVALID,360.0,VALID,0.0,
2019-05-08, 08:29:06,VALID,918.742,VALID,0.0,VALID,85.574,VALID,219.808,VALID,22.478,INVALID,360.0,VALID,0.0,
2019-05-08, 08:30:06,VALID,918.757,VALID,0.0,VALID,86.679,VALID,222.215,VALID,22.4,INVALID,360.0,VALID,0.0,
2019-05-08, 08:31:06,VALID,918.771,VALID,0.0,VALID,87.051,VALID,224.228,VALID,22.382,INVALID,360.0,VALID,0.0,
2019-05-08, 08:32:06,VALID,918.772,VALID,0.0,VALID,87.394,VALID,226.378,VALID,22.47,INVALID,360.0,VALID,0.0,
2019-05-08, 08:33:06,VALID,918.789,VALID,0.0,VALID,87.752,VALID,228.684,VALID,22.596,INVALID,360.0,VALID,0.0,
2019-05-08, 08:34:06,VALID,918.792,VALID,0.0,VALID,86.66,VALID,231.19,VALID,22.636,INVALID,360.0,VALID,0.0,
2019-05-08, 08:35:06,VALID,918.81,VALID,0.0,VALID,86.082,VALID,233.59,VALID,22.641,INVALID,360.0,VALID,0.0,
2019-05-08, 08:36:06,VALID,918.814,VALID,0.0,VALID,85.713,VALID,236.424,VALID,22.646,INVALID,360.0,VALID,0.0,
2019-05-08, 08:37:06,VALID,918.806,VALID,0.0,VALID,85.51,VALID,239.355,VALID,22.679,INVALID,360.0,VALID,0.0,
2019-05-08, 08:38:06,VALID,918.821,VALID,0.0,VALID,83.997,VALID,242.937,VALID,22.753,INVALID,360.0,VALID,0.0,
2019-05-08, 08:39:06,VALID,918.821,VALID,0.0,VALID,82.353,VALID,246.137,VALID,22.76,INVALID,360.0,VALID,0.0,
2019-05-08, 08:40:06,VALID,918.83,VALID,0.0,VALID,81.389,VALID,249.494,VALID,22.697,INVALID,360.0,VALID,0.0,
2019-05-08, 08:41:06,VALID,918.839,VALID,0.0,VALID,82.072,VALID,253.0,VALID,22.662,INVALID,360.0,VALID,0.0,
2019-05-08, 08:42:06,VALID,918.84,VALID,0.0,VALID,83.272,VALID,256.781,VALID,22.77,INVALID,360.0,VALID,0.0,
2019-05-08, 08:43:06,VALID,918.836,VALID,0.0,VALID,83.593,VALID,260.114,VALID,22.966,INVALID,360.0,VALID,0.0,
2019-05-08, 08:44:06,VALID,918.838,VALID,0.0,VALID,83.072,VALID,263.545,VALID,23.189,INVALID,360.0,VALID,0.0,
2019-05-08, 08:45:06,VALID,918.832,VALID,0.0,VALID,83.071,VALID,266.898,VALID,23.374,INVALID,360.0,VALID,0.0,
2019-05-08, 08:46:06,VALID,918.822,VALID,0.0,VALID,83.24,VALID,270.049,VALID,23.539,INVALID,360.0,VALID,0.0,
2019-05-08, 08:47:06,VALID,918.805,VALID,0.0,VALID,83.774,VALID,273.604,VALID,23.626,INVALID,360.0,VALID,0.0,
2019-05-08, 08:48:06,VALID,918.786,VALID,0.0,VALID,84.254,VALID,277.775,VALID,23.728,INVALID,360.0,VALID,0.0,
2019-05-08, 08:49:06,VALID,918.785,VALID,0.0,VALID,83.618,VALID,282.26,VALID,23.797,INVALID,360.0,VALID,0.0,
2019-05-08, 08:50:06,VALID,918.782,VALID,0.0,VALID,83.669,VALID,286.764,VALID,23.746,INVALID,360.0,VALID,0.0,
2019-05-08, 08:51:06,VALID,918.78,VALID,0.0,VALID,84.102,VALID,290.728,VALID,23.781,INVALID,360.0,VALID,0.0,
2019-05-08, 08:52:06,VALID,918.75,VALID,0.0,VALID,82.555,VALID,294.601,VALID,23.773,INVALID,360.0,VALID,0.0,
2019-05-08, 08:53:06,VALID,918.749,VALID,0.0,VALID,82.815,VALID,298.186,VALID,23.65,INVALID,360.0,VALID,0.0,
2019-05-08, 08:54:06,VALID,918.721,VALID,0.0,VALID,82.863,VALID,302.59,VALID,23.566,INVALID,360.0,VALID,0.0,
2019-05-08, 08:55:06,VALID,918.725,VALID,0.0,VALID,82.539,VALID,308.436,VALID,23.541,INVALID,360.0,VALID,0.0,
2019-05-08, 08:56:06,VALID,918.723,VALID,0.0,VALID,82.625,VALID,313.139,VALID,23.578,INVALID,360.0,VALID,0.0,
2019-05-08, 08:57:06,VALID,918.716,VALID,0.0,VALID,82.32,VALID,319.648,VALID,23.621,INVALID,360.0,VALID,0.0,
2019-05-08, 08:58:06,VALID,918.738,VALID,0.0,VALID,80.991,VALID,326.717,VALID,23.647,INVALID,360.0,VALID,0.0,
2019-05-08, 08:59:06,VALID,918.751,VALID,0.0,VALID,80.672,VALID,333.758,VALID,23.716,INVALID,360.0,VALID,0.0,
2019-05-08, 09:00:06,VALID,918.733,VALID,0.0,VALID,79.548,VALID,339.779,VALID,23.781,INVALID,360.0,VALID,0.0,
2019-05-08, 09:01:06,VALID,918.719,VALID,0.0,VALID,79.828,VALID,345.549,VALID,23.887,INVALID,360.0,VALID,0.0,
2019-05-08, 09:02:06,VALID,918.706,VALID,0.0,VALID,77.747,VALID,347.781,VALID,23.956,INVALID,360.0,VALID,0.0,
2019-05-08, 09:03:06,VALID,918.695,VALID,0.0,VALID,76.606,VALID,353.398,VALID,24.037,INVALID,360.0,VALID,0.0,
2019-05-08, 09:04:06,VALID,918.697,VALID,0.0,VALID,76.194,VALID,357.79,VALID,24.212,INVALID,360.0,VALID,0.0,
2019-05-08, 09:05:06,VALID,918.661,VALID,0.0,VALID,75.438,VALID,360.803,VALID,24.203,INVALID,360.0,VALID,0.0,
2019-05-08, 09:06:06,VALID,918.648,VALID,0.0,VALID,75.36,VALID,362.736,VALID,23.923,INVALID,360.0,VALID,0.0,
2019-05-08, 09:07:06,VALID,918.638,VALID,0.0,VALID,77.027,VALID,371.383,VALID,23.926,INVALID,360.0,VALID,0.0,
2019-05-08, 09:08:06,VALID,918.612,VALID,0.0,VALID,77.091,VALID,375.747,VALID,23.97,INVALID,360.0,VALID,0.0,
2019-05-08, 09:09:06,VALID,918.616,VALID,0.0,VALID,78.32,VALID,379.429,VALID,23.942,INVALID,360.0,VALID,0.0,
2019-05-08, 09:10:06,VALID,918.631,VALID,0.0,VALID,80.332,VALID,386.734,VALID,24.036,INVALID,360.0,VALID,0.0,
2019-05-08, 09:11:06,VALID,918.635,VALID,0.0,VALID,79.763,VALID,394.191,VALID,23.935,INVALID,360.0,VALID,0.0,
2019-05-08, 09:12:06,VALID,918.639,VALID,0.0,VALID,79.797,VALID,401.749,VALID,23.83,INVALID,360.0,VALID,0.0,
2019-05-08, 09:13:06,VALID,918.623,VALID,0.0,VALID,79.706,VALID,414.058,VALID,23.725,INVALID,360.0,VALID,0.0,
2019-05-08, 09:14:06,VALID,918.619,VALID,0.0,VALID,79.383,VALID,416.042,VALID,23.694,INVALID,360.0,VALID,0.0,
2019-05-08, 09:15:06,VALID,918.616,VALID,0.0,VALID,76.267,VALID,424.073,VALID,23.709,INVALID,360.0,VALID,0.0,
2019-05-08, 09:16:06,VALID,918.612,VALID,0.0,VALID,75.568,VALID,421.573,VALID,23.754,INVALID,360.0,VALID,0.0,
2019-05-08, 09:17:06,VALID,918.596,VALID,0.0,VALID,75.571,VALID,419.944,VALID,23.819,INVALID,360.0,VALID,0.0,
2019-05-08, 09:18:06,VALID,918.606,VALID,0.0,VALID,76.01,VALID,412.416,VALID,23.833,INVALID,360.0,VALID,0.0,
2019-05-08, 09:19:06,VALID,918.631,VALID,0.0,VALID,76.22,VALID,406.254,VALID,23.856,INVALID,360.0,VALID,0.0,
2019-05-08, 09:20:06,VALID,918.666,VALID,0.0,VALID,76.064,VALID,395.459,VALID,23.902,INVALID,360.0,VALID,0.0,
2019-05-08, 09:21:06,VALID,918.66,VALID,0.0,VALID,75.545,VALID,385.824,VALID,23.899,INVALID,360.0,VALID,0.0,
2019-05-08, 09:22:06,VALID,918.679,VALID,0.0,VALID,76.35,VALID,375.424,VALID,23.798,INVALID,360.0,VALID,0.0,
2019-05-08, 09:23:06,VALID,918.689,VALID,0.0,VALID,76.738,VALID,375.751,VALID,23.702,INVALID,360.0,VALID,0.0,
2019-05-08, 09:24:06,VALID,918.701,VALID,0.0,VALID,77.572,VALID,380.125,VALID,23.605,INVALID,360.0,VALID,0.0,
2019-05-08, 09:25:06,VALID,918.688,VALID,0.0,VALID,78.092,VALID,379.635,VALID,23.728,INVALID,360.0,VALID,0.0,
2019-05-08, 09:26:06,VALID,918.678,VALID,0.0,VALID,77.216,VALID,376.236,VALID,23.887,INVALID,360.0,VALID,0.0,
2019-05-08, 09:27:06,VALID,918.678,VALID,0.0,VALID,76.818,VALID,371.975,VALID,23.896,INVALID,360.0,VALID,0.0,
2019-05-08, 09:28:06,VALID,918.695,VALID,0.0,VALID,77.87,VALID,373.56,VALID,24.013,INVALID,360.0,VALID,0.0,
2019-05-08, 09:29:06,VALID,918.692,VALID,0.0,VALID,77.944,VALID,376.364,VALID,24.166,INVALID,360.0,VALID,0.0,
2019-05-08, 09:30:06,VALID,918.698,VALID,0.0,VALID,75.951,VALID,377.644,VALID,24.226,INVALID,360.0,VALID,0.0,
2019-05-08, 09:31:06,VALID,918.708,VALID,0.0,VALID,76.552,VALID,382.016,VALID,24.317,INVALID,360.0,VALID,0.0,
2019-05-08, 09:32:06,VALID,918.709,VALID,0.0,VALID,75.461,VALID,381.789,VALID,24.432,INVALID,360.0,VALID,0.0,
2019-05-08, 09:33:06,VALID,918.704,VALID,0.0,VALID,76.211,VALID,376.518,VALID,24.491,INVALID,360.0,VALID,0.0,
2019-05-08, 09:34:06,VALID,918.719,VALID,0.0,VALID,75.779,VALID,346.917,VALID,24.495,INVALID,360.0,VALID,0.0,
2019-05-08, 09:35:06,VALID,918.709,VALID,0.0,VALID,75.234,VALID,345.021,VALID,24.599,VALID,358.0,VALID,0.0,
2019-05-08, 09:36:06,VALID,918.71,VALID,0.0,VALID,74.908,VALID,342.327,VALID,24.671,INVALID,360.0,VALID,0.0,
2019-05-08, 09:37:06,VALID,918.694,VALID,0.0,VALID,74.55,VALID,348.906,VALID,24.604,INVALID,360.0,VALID,0.0,
2019-05-08, 09:38:06,VALID,918.675,VALID,0.0,VALID,75.189,VALID,385.758,VALID,24.669,INVALID,360.0,VALID,0.0,
2019-05-08, 09:39:06,VALID,918.668,VALID,0.0,VALID,76.053,VALID,409.52,VALID,24.57,INVALID,360.0,VALID,0.0,
2019-05-08, 09:40:06,VALID,918.669,VALID,0.0,VALID,76.751,VALID,414.711,VALID,24.571,INVALID,360.0,VALID,0.0,
2019-05-08, 09:41:06,VALID,918.667,VALID,0.0,VALID,76.185,VALID,422.553,VALID,24.593,INVALID,360.0,VALID,0.0,
2019-05-08, 09:42:06,VALID,918.666,VALID,0.0,VALID,75.871,VALID,425.697,VALID,24.642,INVALID,360.0,VALID,0.0,
2019-05-08, 09:43:06,VALID,918.657,VALID,0.0,VALID,76.386,VALID,434.709,VALID,24.784,INVALID,360.0,VALID,0.0,
2019-05-08, 09:44:06,VALID,918.668,VALID,0.0,VALID,74.986,VALID,432.631,VALID,24.999,INVALID,360.0,VALID,0.0,
2019-05-08, 09:45:06,VALID,918.648,VALID,0.0,VALID,75.454,VALID,437.306,VALID,25.134,INVALID,360.0,VALID,0.0,
2019-05-08, 09:46:06,VALID,918.65,VALID,0.0,VALID,74.209,VALID,436.93,VALID,25.291,INVALID,360.0,VALID,0.0,
2019-05-08, 09:47:06,VALID,918.651,VALID,0.0,VALID,73.157,VALID,440.944,VALID,25.29,INVALID,360.0,VALID,0.0,
2019-05-08, 09:48:06,VALID,918.635,VALID,0.0,VALID,73.856,VALID,451.435,VALID,25.258,INVALID,360.0,VALID,0.0,
2019-05-08, 09:49:06,VALID,918.651,VALID,0.0,VALID,74.396,VALID,463.09,VALID,25.234,INVALID,360.0,VALID,0.0,
2019-05-08, 09:50:06,VALID,918.651,VALID,0.0,VALID,73.654,VALID,467.456,VALID,25.286,INVALID,360.0,VALID,0.0,
2019-05-08, 09:51:06,VALID,918.664,VALID,0.0,VALID,74.289,VALID,466.625,VALID,25.204,VALID,358.0,VALID,0.0,
2019-05-08, 09:52:06,VALID,918.663,VALID,0.0,VALID,73.555,VALID,464.195,VALID,25.212,INVALID,360.0,VALID,0.0,
2019-05-08, 09:53:06,VALID,918.67,VALID,0.0,VALID,73.601,VALID,462.836,VALID,24.932,INVALID,360.0,VALID,0.0,
2019-05-08, 09:54:06,VALID,918.664,VALID,0.0,VALID,75.005,VALID,459.333,VALID,24.797,INVALID,360.0,VALID,0.0,
2019-05-08, 09:55:06,VALID,918.669,VALID,0.0,VALID,74.227,VALID,456.213,VALID,24.827,INVALID,360.0,VALID,0.0,
2019-05-08, 09:56:06,VALID,918.692,VALID,0.0,VALID,73.305,VALID,450.554,VALID,24.889,INVALID,360.0,VALID,0.0,
2019-05-08, 09:57:06,VALID,918.689,VALID,0.0,VALID,74.371,VALID,445.672,VALID,24.771,INVALID,360.0,VALID,0.0,
2019-05-08, 09:58:06,VALID,918.716,VALID,0.0,VALID,75.346,VALID,442.383,VALID,24.616,INVALID,360.0,VALID,0.0,
2019-05-08, 09:59:06,VALID,918.74,VALID,0.0,VALID,75.665,VALID,440.49,VALID,24.606,INVALID,360.0,VALID,0.0,
2019-05-08, 10:00:06,VALID,918.744,VALID,0.0,VALID,75.841,VALID,439.749,VALID,24.747,INVALID,360.0,VALID,0.0,
2019-05-08, 10:01:06,VALID,918.734,VALID,0.0,VALID,75.087,VALID,440.146,VALID,24.84,INVALID,360.0,VALID,0.0,
2019-05-08, 10:02:06,VALID,918.691,VALID,0.0,VALID,75.43,VALID,434.214,VALID,24.987,INVALID,360.0,VALID,0.0,
2019-05-08, 10:03:06,VALID,918.683,VALID,0.0,VALID,74.886,VALID,426.064,VALID,24.988,INVALID,360.0,VALID,0.0,
2019-05-08, 10:04:06,VALID,918.664,VALID,0.0,VALID,74.648,VALID,409.103,VALID,25.0,INVALID,360.0,VALID,0.0,
2019-05-08, 10:05:06,VALID,918.661,VALID,0.0,VALID,74.043,VALID,392.418,VALID,25.077,INVALID,360.0,VALID,0.0,
2019-05-08, 10:06:06,VALID,918.66,VALID,0.0,VALID,72.699,VALID,382.602,VALID,25.094,INVALID,360.0,VALID,0.0,
2019-05-08, 10:07:06,VALID,918.674,VALID,0.0,VALID,74.072,VALID,376.196,VALID,25.015,INVALID,360.0,VALID,0.0,
2019-05-08, 10:08:06,VALID,918.678,VALID,0.0,VALID,74.326,VALID,374.256,VALID,25.082,INVALID,360.0,VALID,0.0,
2019-05-08, 10:09:06,VALID,918.685,VALID,0.0,VALID,74.88,VALID,373.68,VALID,25.212,INVALID,360.0,VALID,0.0,
2019-05-08, 10:10:06,VALID,918.704,VALID,0.0,VALID,74.851,VALID,373.332,VALID,25.344,INVALID,360.0,VALID,0.0,
2019-05-08, 10:11:06,VALID,918.725,VALID,0.0,VALID,74.927,VALID,375.112,VALID,25.35,INVALID,360.0,VALID,0.0,
2019-05-08, 10:12:06,VALID,918.698,VALID,0.0,VALID,72.676,VALID,383.65,VALID,25.109,INVALID,360.0,VALID,0.0,
2019-05-08, 10:13:06,VALID,918.676,VALID,0.0,VALID,74.158,VALID,395.457,VALID,25.015,INVALID,360.0,VALID,0.0,
2019-05-08, 10:14:06,VALID,918.684,VALID,0.0,VALID,73.743,VALID,402.941,VALID,25.134,INVALID,360.0,VALID,0.0,
2019-05-08, 10:15:06,VALID,918.681,VALID,0.0,VALID,73.979,VALID,405.445,VALID,25.056,INVALID,360.0,VALID,0.0,
2019-05-08, 10:16:06,VALID,918.678,VALID,0.0,VALID,76.087,VALID,406.145,VALID,25.012,INVALID,360.0,VALID,0.0,
2019-05-08, 10:17:06,VALID,918.667,VALID,0.0,VALID,76.53,VALID,410.061,VALID,25.043,INVALID,360.0,VALID,0.0,
2019-05-08, 10:18:06,VALID,918.646,VALID,0.0,VALID,75.451,VALID,407.502,VALID,25.005,INVALID,360.0,VALID,0.0,
2019-05-08, 10:19:06,VALID,918.62,VALID,0.0,VALID,75.368,VALID,402.136,VALID,24.961,INVALID,360.0,VALID,0.0,
2019-05-08, 10:20:06,VALID,918.62,VALID,0.0,VALID,75.288,VALID,400.706,VALID,24.808,INVALID,360.0,VALID,0.0,
2019-05-08, 10:21:06,VALID,918.63,VALID,0.0,VALID,75.489,VALID,401.076,VALID,24.85,INVALID,360.0,VALID,0.0,
2019-05-08, 10:22:06,VALID,918.627,VALID,0.0,VALID,74.811,VALID,401.885,VALID,24.905,INVALID,360.0,VALID,0.0,
2019-05-08, 10:23:06,VALID,918.637,VALID,0.0,VALID,75.867,VALID,403.336,VALID,25.083,INVALID,360.0,VALID,0.0,
2019-05-08, 10:24:06,VALID,918.636,VALID,0.0,VALID,75.917,VALID,408.306,VALID,25.233,INVALID,360.0,VALID,0.0,
2019-05-08, 10:25:06,VALID,918.649,VALID,0.0,VALID,74.76,VALID,411.885,VALID,25.123,INVALID,360.0,VALID,0.0,
2019-05-08, 10:26:06,VALID,918.661,VALID,0.0,VALID,75.117,VALID,420.88,VALID,25.259,INVALID,360.0,VALID,0.0,
2019-05-08, 10:27:06,VALID,918.679,VALID,0.0,VALID,74.622,VALID,429.784,VALID,25.256,INVALID,360.0,VALID,0.0,
2019-05-08, 10:28:06,VALID,918.676,VALID,0.0,VALID,75.337,VALID,436.971,VALID,25.064,INVALID,360.0,VALID,0.0,
2019-05-08, 10:29:06,VALID,918.675,VALID,0.0,VALID,76.144,VALID,453.92,VALID,25.004,INVALID,360.0,VALID,0.0,
2019-05-08, 10:30:06,VALID,918.662,VALID,0.0,VALID,75.728,VALID,457.703,VALID,25.113,INVALID,360.0,VALID,0.0,
2019-05-08, 10:31:06,VALID,918.664,VALID,0.0,VALID,75.022,VALID,467.034,VALID,25.221,INVALID,360.0,VALID,0.0,
2019-05-08, 10:32:06,VALID,918.654,VALID,0.0,VALID,72.397,VALID,464.003,VALID,25.242,INVALID,360.0,VALID,0.0,
2019-05-08, 10:33:06,VALID,918.656,VALID,0.0,VALID,73.321,VALID,468.919,VALID,25.21,INVALID,360.0,VALID,0.0,
2019-05-08, 10:34:06,VALID,918.651,VALID,0.0,VALID,73.605,VALID,473.83,VALID,25.171,INVALID,360.0,VALID,0.0,
2019-05-08, 10:35:06,VALID,918.652,VALID,0.0,VALID,74.852,VALID,479.603,VALID,25.303,INVALID,360.0,VALID,0.0,